This is the latest recevied weather packets stored in our database for station/object YT1XN-8. If no packets are shown the sender has not sent any weather packets the latest 1 day(s).
| Time | Temp. | Humidity | Pressure | Rain* | Wind** | Luminosity | Snow |
|---|---|---|---|---|---|---|---|
| 1778053241 | 21.67° C | 58% | 1014.5 hPa | 0 mm | - | - | - |
| 1778052820 | 21.11° C | 59% | 1014.6 hPa | 0 mm | - | - | - |
| 1778052642 | 21.11° C | 61% | 1014.6 hPa | 0 mm | - | - | - |
| 1778052160 | 20.56° C | 62% | 1014.6 hPa | 0 mm | - | - | - |
| 1778052042 | 20.56° C | 61% | 1014.6 hPa | 0 mm | - | - | - |
| 1778051500 | 20° C | 63% | 1014.6 hPa | 0 mm | - | - | - |
| 1778051441 | 20° C | 62% | 1014.6 hPa | 0 mm | - | - | - |
| 1778050840 | 19.44° C | 64% | 1014.5 hPa | 0 mm | - | - | - |
| 1778050180 | 18.89° C | 66% | 1014.7 hPa | 0 mm | - | - | - |
| 1778049642 | 18.89° C | 67% | 1014.7 hPa | 0 mm | - | - | - |
| 1778049520 | 18.89° C | 67% | 1014.7 hPa | 0 mm | - | - | - |
| 1778049042 | 18.33° C | 66% | 1014.8 hPa | 0 mm | - | - | - |
| 1778048860 | 18.33° C | 67% | 1014.8 hPa | 0 mm | - | - | - |
| 1778048200 | 17.78° C | 69% | 1014.8 hPa | 0 mm | - | - | - |
| 1778047841 | 17.78° C | 70% | 1014.9 hPa | 0 mm | - | - | - |
| 1778047540 | 17.78° C | 70% | 1014.9 hPa | 0 mm | - | - | - |
| 1778046880 | 17.22° C | 70% | 1014.8 hPa | 0 mm | - | - | - |
| 1778046642 | 17.22° C | 69% | 1014.7 hPa | 0 mm | - | - | - |
| 1778046220 | 17.22° C | 72% | 1014.5 hPa | 0 mm | - | - | - |
| 1778046042 | 17.22° C | 72% | 1014.5 hPa | 0 mm | - | - | - |
| 1778045561 | 17.22° C | 69% | 1014.5 hPa | 0 mm | - | - | - |
| 1778045443 | 16.67° C | 69% | 1014.5 hPa | 0 mm | - | - | - |
| 1778044901 | 16.67° C | 69% | 1014.5 hPa | 0 mm | - | - | - |
| 1778044842 | 16.67° C | 69% | 1014.5 hPa | 0 mm | - | - | - |
| 1778044241 | 16.11° C | 69% | 1014.5 hPa | 0 mm | - | - | - |
* Rain latest hour (hover to see other rain measurements)
** Current wind speed in m/s (hover to see current wind gust speed)